Burlington, WI

7:50 PM CDT on May 24, 2017 (GMT -0500)
Burlington

Weather History for KBUU - November, 2012

Change the Weather History Date:

Monday, November 12, 2012

  Actual Average (KENW) Record (KENW)
Temperature  
Mean Temperature 28 °F -  
Max Temperature 33 °F 45 °F 66 °F (1964)
Min Temperature 24 °F 30 °F 9 °F (1986)
Degree Days  
Heating Degree Days 36    
Moisture  
Dew Point 22 °F    
Average Humidity 77    
Maximum Humidity 100    
Minimum Humidity 64    
Precipitation  
Precipitation 0.00 in - - ()
Sea Level Pressure  
Sea Level Pressure 30.10 in    
Wind  
Wind Speed 14 mph (West)    
Max Wind Speed 21 mph    
Max Gust Speed 29 mph    
Visibility 10 miles    
Events Snow    
Averages and records for this station are not official NWS values.
T = Trace of Precipitation, MM = Missing Value Source: NWS Daily Summary

Daily Weather History Graph

Daily Weather History Graph

Search for Another Location

Airport or City:

Trip Planner

Search our weather history database for the weather conditions in past years. The results will help you decide how hot, cold, wet, or windy it might be!

Date:

Astronomy

Nov. 12, 2012 Rise Set
Actual Time 6:41 AM CST 4:32 PM CST
Civil Twilight 6:11 AM CST 5:02 PM CST
Nautical Twilight 5:37 AM CST 5:36 PM CST
Astronomical Twilight 5:04 AM CST 6:10 PM CST
Moon 5:05 AM CST (11/12) 3:38 PM CST (11/12)
Length of Visible Light 10h 51m
Length of Day
9h 51m
Waning Crescent, 2% of the Moon is Illuminated
Nov 12
Waning Crescent
Nov 13
New
Nov 20
First Quarter
Nov 28
Full
Dec 6
Last Quarter

Hourly Weather History & Observations

Time (CST) Temp. Windchill Dew Point Humidity Pressure Visibility Wind Dir Wind Speed Gust Speed Precip Events Conditions
12:15 AM 33.8 °F 23.9 °F 32.0 °F 93% 29.93 in 10.0 mi West 15.0 mph 19.6 mph N/A   Overcast
12:55 AM 32.0 °F 21.6 °F 32.0 °F 100% 29.93 in 10.0 mi West 15.0 mph 19.6 mph N/A   Overcast
1:15 AM 32.0 °F 22.5 °F 30.2 °F 93% 29.92 in 10.0 mi West 12.7 mph 19.6 mph N/A   Mostly Cloudy
1:35 AM 32.0 °F 23.0 °F 30.2 °F 93% 29.92 in 10.0 mi West 11.5 mph 19.6 mph N/A   Overcast
1:55 AM 32.0 °F 23.6 °F 30.2 °F 93% 29.93 in 10.0 mi West 10.4 mph 20.7 mph N/A   Overcast
2:15 AM 32.0 °F 23.6 °F 28.4 °F 87% 29.97 in 10.0 mi WSW 10.4 mph 18.4 mph N/A   Overcast
2:35 AM 30.2 °F 19.3 °F 28.4 °F 93% 29.95 in 10.0 mi WSW 15.0 mph 19.6 mph N/A   Overcast
2:55 AM 30.2 °F 19.8 °F 26.6 °F 86% 29.95 in 10.0 mi West 13.8 mph 21.9 mph N/A   Overcast
3:15 AM 30.2 °F 19.3 °F 26.6 °F 86% 29.97 in 10.0 mi West 15.0 mph 19.6 mph N/A   Overcast
3:55 AM 28.4 °F 18.0 °F 23.0 °F 80% 29.97 in 10.0 mi West 12.7 mph 20.7 mph N/A   Overcast
4:15 AM 28.4 °F 18.0 °F 23.0 °F 80% 29.97 in 10.0 mi West 12.7 mph 24.2 mph N/A   Overcast
4:35 AM 28.4 °F 18.0 °F 23.0 °F 80% 29.98 in 10.0 mi West 12.7 mph 19.6 mph N/A   Overcast
4:55 AM 28.4 °F 18.5 °F 23.0 °F 80% 29.98 in 10.0 mi West 11.5 mph 24.2 mph N/A   Overcast
5:15 AM 28.4 °F 17.5 °F 23.0 °F 80% 29.98 in 10.0 mi West 13.8 mph 20.7 mph N/A   Overcast
5:35 AM 28.4 °F 18.0 °F 23.0 °F 80% 29.99 in 10.0 mi West 12.7 mph - N/A   Overcast
5:55 AM 28.4 °F 18.5 °F 23.0 °F 80% 29.99 in 10.0 mi West 11.5 mph 20.7 mph N/A   Overcast
6:15 AM 28.4 °F 16.6 °F 23.0 °F 80% 30.00 in 10.0 mi WSW 16.1 mph 21.9 mph N/A   Overcast
6:35 AM 26.6 °F 15.7 °F 21.2 °F 80% 30.01 in 10.0 mi West 12.7 mph 23.0 mph N/A   Mostly Cloudy
6:55 AM 26.6 °F 15.2 °F 21.2 °F 80% 30.02 in 10.0 mi West 13.8 mph 20.7 mph N/A   Mostly Cloudy
7:15 AM 26.6 °F 15.7 °F 21.2 °F 80% 30.03 in 10.0 mi WSW 12.7 mph 20.7 mph N/A   Scattered Clouds
7:35 AM 26.6 °F 15.7 °F 21.2 °F 80% 30.03 in 10.0 mi WSW 12.7 mph 18.4 mph N/A   Scattered Clouds
7:55 AM 26.6 °F 14.3 °F 21.2 °F 80% 30.04 in 10.0 mi West 16.1 mph 21.9 mph N/A   Scattered Clouds
8:15 AM 26.6 °F 13.4 °F 21.2 °F 80% 30.05 in 10.0 mi WSW 18.4 mph 24.2 mph N/A   Scattered Clouds
8:35 AM 26.6 °F 14.3 °F 21.2 °F 80% 30.05 in 10.0 mi West 16.1 mph 24.2 mph N/A   Scattered Clouds
8:55 AM 26.6 °F 12.7 °F 21.2 °F 80% 30.06 in 10.0 mi WSW 20.7 mph 26.5 mph N/A   Mostly Cloudy
9:15 AM 26.6 °F 16.2 °F 19.4 °F 74% 30.06 in 10.0 mi West 11.5 mph 23.0 mph N/A   Overcast
9:35 AM 26.6 °F 13.8 °F 19.4 °F 74% 30.07 in 10.0 mi WSW 17.3 mph 25.3 mph N/A   Overcast
9:55 AM 26.6 °F 13.8 °F 19.4 °F 74% 30.07 in 10.0 mi WSW 17.3 mph 24.2 mph N/A   Overcast
10:15 AM 26.6 °F 13.8 °F 19.4 °F 74% 30.08 in 10.0 mi WSW 17.3 mph 27.6 mph N/A   Overcast
10:35 AM 26.6 °F 14.7 °F 19.4 °F 74% 30.09 in 10.0 mi WSW 15.0 mph 24.2 mph N/A   Overcast
10:55 AM 26.6 °F 13.4 °F 19.4 °F 74% 30.09 in 10.0 mi West 18.4 mph 24.2 mph N/A   Overcast
11:15 AM 26.6 °F 15.7 °F 19.4 °F 74% 30.08 in 10.0 mi West 12.7 mph 24.2 mph N/A   Overcast
11:35 AM 28.4 °F 16.2 °F 19.4 °F 69% 30.07 in 10.0 mi West 17.3 mph 23.0 mph N/A   Overcast
11:55 AM 28.4 °F 16.2 °F 21.2 °F 74% 30.07 in 10.0 mi WSW 17.3 mph 25.3 mph N/A   Overcast
12:15 PM 28.4 °F 15.1 °F 21.2 °F 74% 30.07 in 10.0 mi WSW 20.7 mph 25.3 mph N/A   Overcast
12:35 PM 30.2 °F 18.9 °F 21.2 °F 69% 30.07 in 10.0 mi West 16.1 mph 25.3 mph N/A   Overcast
12:55 PM 28.4 °F 15.1 °F 21.2 °F 74% 30.07 in 10.0 mi WSW 20.7 mph 26.5 mph N/A   Overcast
1:15 PM 28.4 °F 16.6 °F 21.2 °F 74% 30.07 in 10.0 mi West 16.1 mph 24.2 mph N/A   Overcast
1:35 PM 30.2 °F 19.3 °F 21.2 °F 69% 30.07 in 10.0 mi WSW 15.0 mph 24.2 mph N/A   Overcast
1:55 PM 30.2 °F 19.3 °F 21.2 °F 69% 30.08 in 10.0 mi WSW 15.0 mph 24.2 mph N/A   Overcast
2:15 PM 30.2 °F 18.5 °F 21.2 °F 69% 30.09 in 10.0 mi WSW 17.3 mph 27.6 mph N/A   Overcast
2:35 PM 30.2 °F 18.1 °F 19.4 °F 64% 30.09 in 10.0 mi WSW 18.4 mph 28.8 mph N/A   Overcast
2:55 PM 30.2 °F 19.3 °F 19.4 °F 64% 30.10 in 10.0 mi West 15.0 mph 26.5 mph N/A   Overcast
3:35 PM 30.2 °F 18.1 °F 21.2 °F 69% 30.12 in 10.0 mi West 18.4 mph 25.3 mph N/A   Overcast
3:55 PM 30.2 °F 20.2 °F 21.2 °F 69% 30.13 in 10.0 mi West 12.7 mph 23.0 mph N/A   Overcast
4:15 PM 30.2 °F 19.3 °F 21.2 °F 69% 30.14 in 10.0 mi West 15.0 mph 27.6 mph N/A   Overcast
4:35 PM 28.4 °F 16.6 °F 21.2 °F 74% 30.15 in 10.0 mi WSW 16.1 mph 21.9 mph N/A   Overcast
4:55 PM 28.4 °F 15.4 °F 21.2 °F 74% 30.16 in 10.0 mi West 19.6 mph 24.2 mph N/A   Overcast
5:15 PM 28.4 °F 18.5 °F 21.2 °F 74% 30.17 in 10.0 mi West 11.5 mph 17.3 mph N/A Snow Light Snow
5:35 PM 28.4 °F 17.0 °F 21.2 °F 74% 30.18 in 10.0 mi West 15.0 mph 23.0 mph N/A Snow Light Snow
5:55 PM 28.4 °F 18.5 °F 21.2 °F 74% 30.19 in 10.0 mi West 11.5 mph 25.3 mph N/A Snow Light Snow
6:15 PM 28.4 °F 18.0 °F 21.2 °F 74% 30.20 in 10.0 mi West 12.7 mph 19.6 mph N/A Snow Light Snow
6:35 PM 28.4 °F 17.0 °F 21.2 °F 74% 30.20 in 10.0 mi West 15.0 mph 24.2 mph N/A Snow Light Snow
6:55 PM 28.4 °F 18.0 °F 21.2 °F 74% 30.20 in 10.0 mi West 12.7 mph 18.4 mph N/A   Overcast
7:35 PM 28.4 °F 18.0 °F 19.4 °F 69% 30.22 in 10.0 mi West 12.7 mph 19.6 mph N/A   Scattered Clouds
7:55 PM 26.6 °F 16.8 °F 19.4 °F 74% 30.22 in 10.0 mi West 10.4 mph 18.4 mph N/A   Scattered Clouds
8:15 PM 26.6 °F 17.5 °F 19.4 °F 74% 30.23 in 10.0 mi West 9.2 mph 18.4 mph N/A   Scattered Clouds
8:35 PM 26.6 °F 16.8 °F 19.4 °F 74% 30.24 in 10.0 mi West 10.4 mph - N/A   Scattered Clouds
8:55 PM 26.6 °F 16.8 °F 19.4 °F 74% 30.25 in 10.0 mi West 10.4 mph 17.3 mph N/A   Clear
9:15 PM 26.6 °F 16.8 °F 19.4 °F 74% 30.26 in 10.0 mi West 10.4 mph 16.1 mph N/A   Scattered Clouds
9:35 PM 26.6 °F 14.3 °F 17.6 °F 69% 30.27 in 10.0 mi West 16.1 mph 21.9 mph N/A   Scattered Clouds
9:55 PM 26.6 °F 15.7 °F 17.6 °F 69% 30.27 in 10.0 mi West 12.7 mph - N/A   Clear
10:15 PM 24.8 °F 15.3 °F 17.6 °F 74% 30.28 in 10.0 mi West 9.2 mph - N/A   Clear
10:35 PM 24.8 °F 15.3 °F 17.6 °F 74% 30.29 in 10.0 mi West 9.2 mph - N/A   Clear
10:55 PM 24.8 °F 14.0 °F 17.6 °F 74% 30.30 in 10.0 mi West 11.5 mph - N/A   Mostly Cloudy
11:15 PM 26.6 °F 17.5 °F 17.6 °F 69% 30.31 in 10.0 mi West 9.2 mph - N/A   Overcast
11:35 PM 24.8 °F 17.9 °F 17.6 °F 74% 30.31 in 10.0 mi West 5.8 mph - N/A   Overcast
11:55 PM 24.8 °F 17.9 °F 17.6 °F 74% 30.31 in 10.0 mi West 5.8 mph - N/A   Overcast